Year,Month,Day,Hour,Minute,Value (Times are PST for windgust in km/hr)
2010,05,04,00,00,30.60
2010,05,04,00,01,27.40
2010,05,04,00,02,27.40
2010,05,04,00,03,29.00
2010,05,04,00,04,40.20
2010,05,04,00,05,32.20
2010,05,04,00,06,24.20
2010,05,04,00,07,24.20
2010,05,04,00,08,30.60
2010,05,04,00,09,20.90
2010,05,04,00,10,29.00
2010,05,04,00,11,27.40
2010,05,04,00,12,20.90
2010,05,04,00,13,22.50
2010,05,04,00,14,20.90
2010,05,04,00,15,17.70
2010,05,04,00,16,29.00
2010,05,04,00,17,19.30
2010,05,04,00,18,20.90
2010,05,04,00,19,24.20
2010,05,04,00,20,24.20
2010,05,04,00,21,30.60
2010,05,04,00,22,24.20
2010,05,04,00,23,29.00
2010,05,04,00,24,38.60
2010,05,04,00,25,35.40
2010,05,04,00,26,30.60
2010,05,04,00,27,30.60
2010,05,04,00,28,25.70
2010,05,04,00,29,27.40
2010,05,04,00,30,29.00
2010,05,04,00,31,30.60
2010,05,04,00,32,11.30
2010,05,04,00,33,19.30
2010,05,04,00,34,19.30
2010,05,04,00,35,20.90
2010,05,04,00,36,27.40
2010,05,04,00,37,17.70
2010,05,04,00,38,17.70
2010,05,04,00,39,16.10
2010,05,04,00,40,20.90
2010,05,04,00,41,20.90
2010,05,04,00,42,20.90
2010,05,04,00,43,20.90
2010,05,04,00,44,29.00
2010,05,04,00,45,27.40
2010,05,04,00,46,27.40
2010,05,04,00,47,20.90
2010,05,04,00,48,24.20
2010,05,04,00,49,20.90
2010,05,04,00,50,24.20
2010,05,04,00,51,22.50
2010,05,04,00,52,25.70
2010,05,04,00,53,20.90
2010,05,04,00,54,19.30
2010,05,04,00,55,19.30
2010,05,04,00,56,20.90
2010,05,04,00,57,20.90
2010,05,04,00,58,19.30
2010,05,04,00,59,22.50
2010,05,04,01,00,25.70
2010,05,04,01,01,24.20
2010,05,04,01,02,22.50
2010,05,04,01,03,20.90
2010,05,04,01,04,20.90
2010,05,04,01,05,19.30
2010,05,04,01,06,16.10
2010,05,04,01,07,17.70
2010,05,04,01,08,17.70
2010,05,04,01,09,17.70
2010,05,04,01,10,12.90
2010,05,04,01,11,16.10
2010,05,04,01,12,11.30
2010,05,04,01,13,11.30
2010,05,04,01,14,14.50
2010,05,04,01,15,14.50
2010,05,04,01,16,14.50
2010,05,04,01,17,17.70
2010,05,04,01,18,19.30
2010,05,04,01,19,14.50
2010,05,04,01,20,11.30
2010,05,04,01,21,8.10
2010,05,04,01,22,11.30
2010,05,04,01,23,24.20
2010,05,04,01,24,19.30
2010,05,04,01,25,16.10
2010,05,04,01,26,19.30
2010,05,04,01,27,17.70
2010,05,04,01,28,16.10
2010,05,04,01,29,14.50
2010,05,04,01,30,16.10
2010,05,04,01,31,17.70
2010,05,04,01,32,11.30
2010,05,04,01,33,11.30
2010,05,04,01,34,12.90
2010,05,04,01,35,9.60
2010,05,04,01,36,9.60
2010,05,04,01,37,11.30
2010,05,04,01,38,11.30
2010,05,04,01,39,11.30
2010,05,04,01,40,9.60
2010,05,04,01,41,12.90
2010,05,04,01,42,8.10
2010,05,04,01,43,16.10
2010,05,04,01,44,14.50
2010,05,04,01,45,9.60
2010,05,04,01,46,8.10
2010,05,04,01,47,8.10
2010,05,04,01,48,9.60
2010,05,04,01,49,8.10
2010,05,04,01,50,14.50
2010,05,04,01,51,9.60
2010,05,04,01,52,6.40
2010,05,04,01,53,9.60
2010,05,04,01,54,9.60
2010,05,04,01,55,6.40
2010,05,04,01,56,8.10
2010,05,04,01,57,8.10
2010,05,04,01,58,4.80
2010,05,04,01,59,4.80
2010,05,04,02,00,6.40
2010,05,04,02,01,6.40
2010,05,04,02,02,6.40
2010,05,04,02,03,6.40
2010,05,04,02,04,4.80
2010,05,04,02,05,3.20
2010,05,04,02,06,3.20
2010,05,04,02,07,4.80
2010,05,04,02,08,3.20
2010,05,04,02,09,1.60
2010,05,04,02,10,4.80
2010,05,04,02,11,6.40
2010,05,04,02,12,4.80
2010,05,04,02,13,8.10
2010,05,04,02,14,6.40
2010,05,04,02,15,4.80
2010,05,04,02,16,4.80
2010,05,04,02,17,4.80
2010,05,04,02,18,1.60
2010,05,04,02,19,3.20
2010,05,04,02,20,9.60
2010,05,04,02,21,6.40
2010,05,04,02,22,14.50
2010,05,04,02,23,6.40
2010,05,04,02,24,11.30
2010,05,04,02,25,6.40
2010,05,04,02,26,8.10
2010,05,04,02,27,1.60
2010,05,04,02,28,3.20
2010,05,04,02,29,3.20
2010,05,04,02,30,3.20
2010,05,04,02,31,3.20
2010,05,04,02,32,4.80
2010,05,04,02,33,4.80
2010,05,04,02,34,3.20
2010,05,04,02,35,3.20
2010,05,04,02,42,1.60
2010,05,04,02,43,3.20
2010,05,04,02,44,4.80
2010,05,04,02,45,3.20
2010,05,04,02,46,4.80
2010,05,04,02,47,1.60
2010,05,04,02,48,1.60
2010,05,04,02,50,3.20
2010,05,04,02,51,4.80
2010,05,04,02,52,4.80
2010,05,04,02,53,3.20
2010,05,04,02,54,1.60
2010,05,04,02,56,4.80
2010,05,04,02,57,1.60
2010,05,04,02,58,4.80
2010,05,04,02,59,3.20
2010,05,04,03,00,4.80
2010,05,04,03,01,6.40
2010,05,04,03,02,6.40
2010,05,04,03,03,6.40
2010,05,04,03,04,4.80
2010,05,04,03,06,4.80
2010,05,04,03,07,6.40
2010,05,04,03,08,3.20
2010,05,04,03,09,3.20
2010,05,04,03,10,8.10
2010,05,04,03,11,11.30
2010,05,04,03,12,8.10
2010,05,04,03,13,6.40
2010,05,04,03,14,4.80
2010,05,04,03,15,4.80
2010,05,04,03,16,8.10
2010,05,04,03,17,16.10
2010,05,04,03,18,9.60
2010,05,04,03,19,11.30
2010,05,04,03,20,14.50
2010,05,04,03,21,9.60
2010,05,04,03,22,4.80
2010,05,04,03,23,11.30
2010,05,04,03,24,9.60
2010,05,04,03,25,14.50
2010,05,04,03,26,11.30
2010,05,04,03,27,9.60
2010,05,04,03,28,11.30
2010,05,04,03,29,8.10
2010,05,04,03,30,8.10
2010,05,04,03,31,1.60
2010,05,04,03,32,3.20
2010,05,04,03,33,4.80
2010,05,04,03,34,8.10
2010,05,04,03,35,1.60
2010,05,04,03,36,3.20
2010,05,04,03,37,4.80
2010,05,04,03,38,6.40
2010,05,04,03,39,6.40
2010,05,04,03,40,1.60
2010,05,04,03,41,6.40
2010,05,04,03,42,4.80
2010,05,04,03,43,6.40
2010,05,04,03,44,1.60
2010,05,04,03,45,4.80
2010,05,04,03,46,6.40
2010,05,04,03,47,20.90
2010,05,04,03,48,8.10
2010,05,04,03,49,14.50
2010,05,04,03,50,11.30
2010,05,04,03,51,6.40
2010,05,04,03,52,6.40
2010,05,04,03,53,8.10
2010,05,04,03,54,12.90
2010,05,04,03,55,16.10
2010,05,04,03,56,6.40
2010,05,04,03,57,1.60
2010,05,04,03,58,8.10
2010,05,04,03,59,8.10
2010,05,04,04,00,8.10
2010,05,04,04,01,16.10
2010,05,04,04,02,6.40
2010,05,04,04,03,16.10
2010,05,04,04,04,9.60
2010,05,04,04,05,12.90
2010,05,04,04,06,20.90
2010,05,04,04,07,16.10
2010,05,04,04,08,19.30
2010,05,04,04,09,11.30
2010,05,04,04,10,11.30
2010,05,04,04,11,11.30
2010,05,04,04,12,14.50
2010,05,04,04,13,11.30
2010,05,04,04,14,9.60
2010,05,04,04,15,8.10
2010,05,04,04,16,14.50
2010,05,04,04,17,17.70
2010,05,04,04,18,19.30
2010,05,04,04,19,11.30
2010,05,04,04,20,17.70
2010,05,04,04,21,14.50
2010,05,04,04,22,20.90
2010,05,04,04,23,20.90
2010,05,04,04,24,20.90
2010,05,04,04,25,8.10
2010,05,04,04,26,16.10
2010,05,04,04,27,19.30
2010,05,04,04,28,11.30
2010,05,04,04,29,17.70
2010,05,04,04,30,17.70
2010,05,04,04,31,16.10
2010,05,04,04,32,17.70
2010,05,04,04,33,16.10
2010,05,04,04,34,11.30
2010,05,04,04,35,11.30
2010,05,04,04,36,9.60
2010,05,04,04,37,12.90
2010,05,04,04,38,11.30
2010,05,04,04,39,6.40
2010,05,04,04,40,6.40
2010,05,04,04,41,9.60
2010,05,04,04,42,4.80
2010,05,04,04,43,9.60
2010,05,04,04,44,8.10
2010,05,04,04,45,9.60
2010,05,04,04,46,16.10
2010,05,04,04,47,14.50
2010,05,04,04,48,17.70
2010,05,04,04,49,9.60
2010,05,04,04,50,9.60
2010,05,04,04,51,9.60
2010,05,04,04,52,8.10
2010,05,04,04,53,4.80
2010,05,04,04,54,9.60
2010,05,04,04,55,14.50
2010,05,04,04,56,8.10
2010,05,04,04,57,16.10
2010,05,04,04,58,8.10
2010,05,04,04,59,9.60
2010,05,04,05,00,9.60
2010,05,04,05,01,11.30
2010,05,04,05,02,17.70
2010,05,04,05,03,14.50
2010,05,04,05,04,22.50
2010,05,04,05,05,17.70
2010,05,04,05,06,19.30
2010,05,04,05,07,17.70
2010,05,04,05,08,14.50
2010,05,04,05,09,11.30
2010,05,04,05,10,19.30
2010,05,04,05,11,16.10
2010,05,04,05,12,32.20
2010,05,04,05,13,32.20
2010,05,04,05,14,35.40
2010,05,04,05,15,29.00
2010,05,04,05,16,22.50
2010,05,04,05,17,25.70
2010,05,04,05,18,25.70
2010,05,04,05,19,19.30
2010,05,04,05,20,20.90
2010,05,04,05,21,25.70
2010,05,04,05,22,17.70
2010,05,04,05,23,17.70
2010,05,04,05,24,19.30
2010,05,04,05,25,22.50
2010,05,04,05,26,20.90
2010,05,04,05,27,24.20
2010,05,04,05,28,25.70
2010,05,04,05,29,22.50
2010,05,04,05,30,17.70
2010,05,04,05,31,16.10
2010,05,04,05,32,19.30
2010,05,04,05,33,17.70
2010,05,04,05,34,14.50
2010,05,04,05,35,16.10
2010,05,04,05,36,9.60
2010,05,04,05,37,11.30
2010,05,04,05,38,8.10
2010,05,04,05,39,8.10
2010,05,04,05,40,11.30
2010,05,04,05,41,9.60
2010,05,04,05,42,6.40
2010,05,04,05,43,11.30
2010,05,04,05,44,11.30
2010,05,04,05,45,8.10
2010,05,04,05,46,8.10
2010,05,04,05,47,6.40
2010,05,04,05,48,9.60
2010,05,04,05,49,11.30
2010,05,04,05,50,9.60
2010,05,04,05,51,14.50
2010,05,04,05,52,11.30
2010,05,04,05,53,12.90
2010,05,04,05,54,6.40
2010,05,04,05,55,8.10
2010,05,04,05,56,6.40
2010,05,04,05,57,6.40
2010,05,04,05,58,9.60
2010,05,04,05,59,16.10
2010,05,04,06,00,8.10
2010,05,04,06,01,6.40
2010,05,04,06,02,11.30
2010,05,04,06,03,11.30
2010,05,04,06,04,8.10
2010,05,04,06,05,9.60
2010,05,04,06,06,17.70
2010,05,04,06,07,8.10
2010,05,04,06,08,16.10
2010,05,04,06,09,19.30
2010,05,04,06,10,19.30
2010,05,04,06,11,19.30
2010,05,04,06,12,19.30
2010,05,04,06,13,22.50
2010,05,04,06,14,24.20
2010,05,04,06,15,14.50
2010,05,04,06,16,24.20
2010,05,04,06,17,24.20
2010,05,04,06,18,19.30
2010,05,04,06,19,19.30
2010,05,04,06,20,16.10
2010,05,04,06,21,11.30
2010,05,04,06,22,11.30
2010,05,04,06,23,11.30
2010,05,04,06,24,9.60
2010,05,04,06,25,22.50
2010,05,04,06,26,16.10
2010,05,04,06,27,11.30
2010,05,04,06,28,11.30
2010,05,04,06,29,9.60
2010,05,04,06,30,9.60
2010,05,04,06,31,11.30
2010,05,04,06,32,6.40
2010,05,04,06,33,6.40
2010,05,04,06,34,4.80
2010,05,04,06,35,6.40
2010,05,04,06,36,4.80
2010,05,04,06,37,4.80
2010,05,04,06,38,3.20
2010,05,04,06,39,4.80
2010,05,04,06,40,6.40
2010,05,04,06,41,4.80
2010,05,04,06,42,12.90
2010,05,04,06,43,9.60
2010,05,04,06,44,9.60
2010,05,04,06,45,4.80
2010,05,04,06,46,4.80
2010,05,04,06,47,6.40
2010,05,04,06,48,8.10
2010,05,04,06,49,6.40
2010,05,04,06,50,9.60
2010,05,04,06,51,9.60
2010,05,04,06,52,9.60
2010,05,04,06,53,8.10
2010,05,04,06,54,8.10
2010,05,04,06,55,6.40
2010,05,04,06,56,3.20
2010,05,04,06,57,1.60
2010,05,04,06,58,6.40
2010,05,04,06,59,12.90
2010,05,04,07,00,11.30
2010,05,04,07,01,4.80
2010,05,04,07,02,4.80
2010,05,04,07,03,1.60
2010,05,04,07,04,6.40
2010,05,04,07,05,1.60
2010,05,04,07,06,4.80
2010,05,04,07,07,6.40
2010,05,04,07,10,3.20
2010,05,04,07,11,9.60
2010,05,04,07,12,14.50
2010,05,04,07,13,9.60
2010,05,04,07,14,9.60
2010,05,04,07,15,9.60
2010,05,04,07,16,9.60
2010,05,04,07,17,9.60
2010,05,04,07,18,19.30
2010,05,04,07,19,14.50
2010,05,04,07,20,11.30
2010,05,04,07,21,16.10
2010,05,04,07,22,9.60
2010,05,04,07,23,14.50
2010,05,04,07,24,19.30
2010,05,04,07,25,25.70
2010,05,04,07,26,17.70
2010,05,04,07,27,16.10
2010,05,04,07,28,16.10
2010,05,04,07,29,11.30
2010,05,04,07,30,20.90
2010,05,04,07,31,24.20
2010,05,04,07,32,22.50
2010,05,04,07,33,24.20
2010,05,04,07,34,20.90
2010,05,04,07,35,17.70
2010,05,04,07,36,17.70
2010,05,04,07,37,19.30
2010,05,04,07,38,17.70
2010,05,04,07,39,22.50
2010,05,04,07,40,20.90
2010,05,04,07,41,22.50
2010,05,04,07,42,17.70
2010,05,04,07,43,17.70
2010,05,04,07,44,19.30
2010,05,04,07,45,20.90
2010,05,04,07,46,20.90
2010,05,04,07,47,29.00
2010,05,04,07,48,27.40
2010,05,04,07,49,17.70
2010,05,04,07,50,16.10
2010,05,04,07,51,19.30
2010,05,04,07,52,20.90
2010,05,04,07,53,29.00
2010,05,04,07,54,22.50
2010,05,04,07,55,24.20
2010,05,04,07,56,24.20
2010,05,04,07,57,24.20
2010,05,04,07,58,16.10
2010,05,04,07,59,19.30
2010,05,04,08,00,9.60
2010,05,04,08,01,8.10
2010,05,04,08,02,20.90
2010,05,04,08,03,14.50
2010,05,04,08,04,19.30
2010,05,04,08,05,17.70
2010,05,04,08,06,17.70
2010,05,04,08,07,16.10
2010,05,04,08,08,16.10
2010,05,04,08,09,17.70
2010,05,04,08,10,19.30
2010,05,04,08,11,11.30
2010,05,04,08,12,16.10
2010,05,04,08,13,9.60
2010,05,04,08,14,11.30
2010,05,04,08,15,8.10
2010,05,04,08,16,6.40
2010,05,04,08,17,11.30
2010,05,04,08,18,6.40
2010,05,04,08,19,20.90
2010,05,04,08,20,9.60
2010,05,04,08,21,4.80
2010,05,04,08,22,14.50
2010,05,04,08,23,17.70
2010,05,04,08,24,9.60
2010,05,04,08,25,16.10
2010,05,04,08,26,11.30
2010,05,04,08,27,9.60
2010,05,04,08,28,6.40
2010,05,04,08,29,14.50
2010,05,04,08,30,16.10
2010,05,04,08,31,11.30
2010,05,04,08,32,11.30
2010,05,04,08,33,9.60
2010,05,04,08,34,9.60
2010,05,04,08,35,9.60
2010,05,04,08,36,11.30
2010,05,04,08,37,16.10
2010,05,04,08,38,17.70
2010,05,04,08,39,20.90
2010,05,04,08,40,20.90
2010,05,04,08,41,16.10
2010,05,04,08,42,8.10
2010,05,04,08,43,9.60
2010,05,04,08,44,9.60
2010,05,04,08,45,17.70
2010,05,04,08,46,17.70
2010,05,04,08,47,22.50
2010,05,04,08,48,25.70
2010,05,04,08,49,20.90
2010,05,04,08,50,22.50
2010,05,04,08,51,19.30
2010,05,04,08,52,22.50
2010,05,04,08,53,17.70
2010,05,04,08,54,20.90
2010,05,04,08,55,19.30
2010,05,04,08,56,11.30
2010,05,04,08,57,16.10
2010,05,04,08,58,22.50
2010,05,04,08,59,16.10
2010,05,04,09,00,16.10
2010,05,04,09,01,14.50
2010,05,04,09,02,14.50
2010,05,04,09,03,16.10
2010,05,04,09,04,19.30
2010,05,04,09,05,16.10
2010,05,04,09,06,9.60
2010,05,04,09,07,17.70
2010,05,04,09,08,20.90
2010,05,04,09,09,19.30
2010,05,04,09,10,16.10
2010,05,04,09,11,6.40
2010,05,04,09,12,16.10
2010,05,04,09,13,19.30
2010,05,04,09,14,8.10
2010,05,04,09,15,14.50
2010,05,04,09,16,6.40
2010,05,04,09,17,17.70
2010,05,04,09,18,8.10
2010,05,04,09,19,12.90
2010,05,04,09,20,14.50
2010,05,04,09,21,20.90
2010,05,04,09,22,20.90
2010,05,04,09,23,14.50
2010,05,04,09,24,11.30
2010,05,04,09,25,11.30
2010,05,04,09,26,11.30
2010,05,04,09,27,16.10
2010,05,04,09,28,8.10
2010,05,04,09,29,14.50
2010,05,04,09,30,14.50
2010,05,04,09,31,17.70
2010,05,04,09,32,16.10
2010,05,04,09,33,16.10
2010,05,04,09,34,16.10
2010,05,04,09,35,11.30
2010,05,04,09,36,9.60
2010,05,04,09,37,16.10
2010,05,04,09,38,19.30
2010,05,04,09,39,20.90
2010,05,04,09,40,20.90
2010,05,04,09,41,17.70
2010,05,04,09,42,20.90
2010,05,04,09,43,14.50
2010,05,04,09,44,16.10
2010,05,04,09,45,17.70
2010,05,04,09,46,11.30
2010,05,04,09,47,17.70
2010,05,04,09,48,22.50
2010,05,04,09,49,20.90
2010,05,04,09,50,20.90
2010,05,04,09,51,14.50
2010,05,04,09,52,11.30
2010,05,04,09,53,20.90
2010,05,04,09,54,17.70
2010,05,04,09,55,19.30
2010,05,04,09,56,17.70
2010,05,04,09,57,17.70
2010,05,04,09,58,19.30
2010,05,04,09,59,16.10
2010,05,04,10,00,14.50
2010,05,04,10,01,11.30
2010,05,04,10,02,14.50
2010,05,04,10,03,9.60
2010,05,04,10,04,16.10
2010,05,04,10,05,12.90
2010,05,04,10,06,16.10
2010,05,04,10,07,14.50
2010,05,04,10,08,17.70
2010,05,04,10,09,14.50
2010,05,04,10,10,4.80
2010,05,04,10,11,11.30
2010,05,04,10,12,8.10
2010,05,04,10,13,8.10
2010,05,04,10,14,6.40
2010,05,04,10,15,6.40
2010,05,04,10,16,6.40
2010,05,04,10,17,8.10
2010,05,04,10,18,12.90
2010,05,04,10,19,6.40
2010,05,04,10,20,9.60
2010,05,04,10,21,8.10
2010,05,04,10,22,17.70
2010,05,04,10,23,14.50
2010,05,04,10,24,6.40
2010,05,04,10,25,6.40
2010,05,04,10,26,6.40
2010,05,04,10,27,4.80
2010,05,04,10,28,9.60
2010,05,04,10,29,8.10
2010,05,04,10,30,4.80
2010,05,04,10,31,14.50
2010,05,04,10,32,16.10
2010,05,04,10,33,9.60
2010,05,04,10,34,9.60
2010,05,04,10,35,16.10
2010,05,04,10,36,14.50
2010,05,04,10,37,11.30
2010,05,04,10,38,6.40
2010,05,04,10,39,12.90
2010,05,04,10,40,11.30
2010,05,04,10,41,14.50
2010,05,04,10,42,9.60
2010,05,04,10,43,16.10
2010,05,04,10,44,9.60
2010,05,04,10,45,16.10
2010,05,04,10,46,11.30
2010,05,04,10,47,17.70
2010,05,04,10,48,16.10
2010,05,04,10,49,11.30
2010,05,04,10,50,9.60
2010,05,04,10,51,14.50
2010,05,04,10,52,22.50
2010,05,04,10,53,16.10
2010,05,04,10,54,14.50
2010,05,04,10,55,22.50
2010,05,04,10,56,24.20
2010,05,04,10,57,19.30
2010,05,04,10,58,17.70
2010,05,04,10,59,19.30
2010,05,04,11,00,22.50
2010,05,04,11,01,20.90
2010,05,04,11,02,24.20
2010,05,04,11,03,22.50
2010,05,04,11,04,20.90
2010,05,04,11,05,22.50
2010,05,04,11,06,16.10
2010,05,04,11,07,14.50
2010,05,04,11,08,11.30
2010,05,04,11,09,22.50
2010,05,04,11,10,19.30
2010,05,04,11,11,20.90
2010,05,04,11,12,20.90
2010,05,04,11,13,22.50
2010,05,04,11,14,20.90
2010,05,04,11,15,24.20
2010,05,04,11,16,24.20
2010,05,04,11,17,24.20
2010,05,04,11,18,22.50
2010,05,04,11,19,20.90
2010,05,04,11,20,16.10
2010,05,04,11,21,20.90
2010,05,04,11,22,20.90
2010,05,04,11,23,20.90
2010,05,04,11,24,17.70
2010,05,04,11,25,20.90
2010,05,04,11,26,27.40
2010,05,04,11,27,27.40
2010,05,04,11,28,24.20
2010,05,04,11,29,25.70
2010,05,04,11,30,24.20
2010,05,04,11,31,24.20
2010,05,04,11,32,22.50
2010,05,04,11,33,19.30
2010,05,04,11,34,17.70
2010,05,04,11,35,25.70
2010,05,04,11,36,27.40
2010,05,04,11,37,24.20
2010,05,04,11,38,24.20
2010,05,04,11,39,22.50
2010,05,04,11,40,25.70
2010,05,04,11,41,27.40
2010,05,04,11,42,22.50
2010,05,04,11,43,24.20
2010,05,04,11,44,25.70
2010,05,04,11,45,24.20
2010,05,04,11,46,19.30
2010,05,04,11,47,22.50
2010,05,04,11,48,16.10
2010,05,04,11,49,24.20
2010,05,04,11,50,17.70
2010,05,04,11,51,14.50
2010,05,04,11,52,24.20
2010,05,04,11,53,29.00
2010,05,04,11,54,19.30
2010,05,04,11,55,17.70
2010,05,04,11,56,25.70
2010,05,04,11,57,19.30
2010,05,04,11,58,20.90
2010,05,04,11,59,22.50
2010,05,04,12,00,22.50
2010,05,04,12,01,17.70
2010,05,04,12,02,19.30
2010,05,04,12,03,12.90
2010,05,04,12,04,19.30
2010,05,04,12,05,11.30
2010,05,04,12,06,9.60
2010,05,04,12,07,16.10
2010,05,04,12,08,9.60
2010,05,04,12,09,11.30
2010,05,04,12,10,20.90
2010,05,04,12,11,25.70
2010,05,04,12,12,20.90
2010,05,04,12,13,16.10
2010,05,04,12,14,16.10
2010,05,04,12,15,16.10
2010,05,04,12,16,20.90
2010,05,04,12,17,27.40
2010,05,04,12,18,24.20
2010,05,04,12,19,29.00
2010,05,04,12,20,24.20
2010,05,04,12,21,19.30
2010,05,04,12,22,24.20
2010,05,04,12,23,20.90
2010,05,04,12,24,32.20
2010,05,04,12,25,25.70
2010,05,04,12,26,17.70
2010,05,04,12,27,29.00
2010,05,04,12,28,30.60
2010,05,04,12,29,32.20
2010,05,04,12,30,20.90
2010,05,04,12,31,20.90
2010,05,04,12,32,24.20
2010,05,04,12,33,33.80
2010,05,04,12,34,30.60
2010,05,04,12,35,24.20
2010,05,04,12,36,33.80
2010,05,04,12,37,32.20
2010,05,04,12,38,33.80
2010,05,04,12,39,30.60
2010,05,04,12,40,30.60
2010,05,04,12,41,33.80
2010,05,04,12,42,32.20
2010,05,04,12,43,24.20
2010,05,04,12,44,24.20
2010,05,04,12,45,33.80
2010,05,04,12,46,25.70
2010,05,04,12,47,20.90
2010,05,04,12,48,25.70
2010,05,04,12,49,22.50
2010,05,04,12,50,22.50
2010,05,04,12,51,38.60
2010,05,04,12,52,33.80
2010,05,04,12,53,24.20
2010,05,04,12,54,24.20
2010,05,04,12,55,24.20
2010,05,04,12,56,27.40
2010,05,04,12,57,30.60
2010,05,04,12,58,24.20
2010,05,04,12,59,25.70
2010,05,04,13,00,25.70
2010,05,04,13,01,29.00
2010,05,04,13,02,27.40
2010,05,04,13,03,30.60
2010,05,04,13,04,19.30
2010,05,04,13,05,24.20
2010,05,04,13,06,16.10
2010,05,04,13,07,25.70
2010,05,04,13,08,27.40
2010,05,04,13,09,27.40
2010,05,04,13,10,16.10
2010,05,04,13,11,17.70
2010,05,04,13,12,14.50
2010,05,04,13,13,11.30
2010,05,04,13,14,25.70
2010,05,04,13,15,17.70
2010,05,04,13,16,20.90
2010,05,04,13,17,22.50
2010,05,04,13,18,24.20
2010,05,04,13,19,19.30
2010,05,04,13,20,20.90
2010,05,04,13,21,17.70
2010,05,04,13,22,19.30
2010,05,04,13,23,17.70
2010,05,04,13,24,19.30
2010,05,04,13,25,17.70
2010,05,04,13,26,17.70
2010,05,04,13,27,17.70
2010,05,04,13,28,20.90
2010,05,04,13,29,20.90
2010,05,04,13,30,22.50
2010,05,04,13,31,22.50
2010,05,04,13,32,22.50
2010,05,04,13,33,16.10
2010,05,04,13,34,22.50
2010,05,04,13,35,24.20
2010,05,04,13,36,24.20
2010,05,04,13,37,25.70
2010,05,04,13,38,27.40
2010,05,04,13,39,25.70
2010,05,04,13,40,29.00
2010,05,04,13,41,20.90
2010,05,04,13,42,30.60
2010,05,04,13,43,29.00
2010,05,04,13,44,29.00
2010,05,04,13,45,32.20
2010,05,04,13,46,25.70
2010,05,04,13,47,24.20
2010,05,04,13,48,25.70
2010,05,04,13,49,29.00
2010,05,04,13,50,29.00
2010,05,04,13,51,27.40
2010,05,04,13,52,22.50
2010,05,04,13,53,16.10
2010,05,04,13,54,20.90
2010,05,04,13,55,20.90
2010,05,04,13,56,24.20
2010,05,04,13,57,24.20
2010,05,04,13,58,25.70
2010,05,04,13,59,33.80
2010,05,04,14,00,30.60
2010,05,04,14,01,20.90
2010,05,04,14,02,37.00
2010,05,04,14,03,29.00
2010,05,04,14,04,22.50
2010,05,04,14,05,25.70
2010,05,04,14,06,25.70
2010,05,04,14,07,33.80
2010,05,04,14,08,24.20
2010,05,04,14,09,22.50
2010,05,04,14,10,30.60
2010,05,04,14,11,25.70
2010,05,04,14,12,24.20
2010,05,04,14,13,33.80
2010,05,04,14,14,24.20
2010,05,04,14,15,24.20
2010,05,04,14,16,22.50
2010,05,04,14,17,25.70
2010,05,04,14,18,25.70
2010,05,04,14,19,27.40
2010,05,04,14,20,22.50
2010,05,04,14,21,19.30
2010,05,04,14,22,27.40
2010,05,04,14,23,25.70
2010,05,04,14,24,25.70
2010,05,04,14,25,25.70
2010,05,04,14,26,25.70
2010,05,04,14,27,32.20
2010,05,04,14,28,27.40
2010,05,04,14,29,30.60
2010,05,04,14,30,30.60
2010,05,04,14,31,22.50
2010,05,04,14,32,22.50
2010,05,04,14,33,22.50
2010,05,04,14,34,29.00
2010,05,04,14,35,27.40
2010,05,04,14,36,35.40
2010,05,04,14,37,35.40
2010,05,04,14,38,25.70
2010,05,04,14,39,24.20
2010,05,04,14,40,27.40
2010,05,04,14,41,29.00
2010,05,04,14,42,29.00
2010,05,04,14,43,17.70
2010,05,04,14,44,25.70
2010,05,04,14,45,33.80
2010,05,04,14,46,24.20
2010,05,04,14,47,20.90
2010,05,04,14,48,27.40
2010,05,04,14,49,27.40
2010,05,04,14,50,29.00
2010,05,04,14,51,32.20
2010,05,04,14,52,30.60
2010,05,04,14,53,35.40
2010,05,04,14,54,32.20
2010,05,04,14,55,27.40
2010,05,04,14,56,27.40
2010,05,04,14,57,19.30
2010,05,04,14,58,33.80
2010,05,04,14,59,35.40
2010,05,04,15,00,30.60
2010,05,04,15,01,32.20
2010,05,04,15,02,32.20
2010,05,04,15,03,40.20
2010,05,04,15,04,25.70
2010,05,04,15,05,38.60
2010,05,04,15,06,25.70
2010,05,04,15,07,24.20
2010,05,04,15,08,37.00
2010,05,04,15,09,45.10
2010,05,04,15,10,40.20
2010,05,04,15,11,33.80
2010,05,04,15,12,32.20
2010,05,04,15,13,38.60
2010,05,04,15,14,33.80
2010,05,04,15,15,27.40
2010,05,04,15,16,24.20
2010,05,04,15,17,30.60
2010,05,04,15,18,24.20
2010,05,04,15,19,17.70
2010,05,04,15,20,25.70
2010,05,04,15,21,22.50
2010,05,04,15,22,19.30
2010,05,04,15,23,27.40
2010,05,04,15,24,29.00
2010,05,04,15,25,32.20
2010,05,04,15,26,32.20
2010,05,04,15,27,35.40
2010,05,04,15,28,24.20
2010,05,04,15,29,25.70
2010,05,04,15,30,22.50
2010,05,04,15,31,22.50
2010,05,04,15,32,33.80
2010,05,04,15,33,25.70
2010,05,04,15,34,22.50
2010,05,04,15,35,24.20
2010,05,04,15,36,32.20
2010,05,04,15,37,37.00
2010,05,04,15,38,30.60
2010,05,04,15,39,32.20
2010,05,04,15,40,35.40
2010,05,04,15,41,33.80
2010,05,04,15,42,24.20
2010,05,04,15,43,29.00
2010,05,04,15,44,29.00
2010,05,04,15,45,32.20
2010,05,04,15,46,30.60
2010,05,04,15,47,25.70
2010,05,04,15,48,27.40
2010,05,04,15,49,29.00
2010,05,04,15,50,30.60
2010,05,04,15,51,27.40
2010,05,04,15,52,20.90
2010,05,04,15,53,19.30
2010,05,04,15,54,24.20
2010,05,04,15,55,19.30
2010,05,04,15,56,22.50
2010,05,04,15,57,25.70
2010,05,04,15,58,25.70
2010,05,04,15,59,19.30
2010,05,04,16,00,22.50
2010,05,04,16,01,30.60
2010,05,04,16,02,20.90
2010,05,04,16,03,20.90
2010,05,04,16,04,24.20
2010,05,04,16,05,22.50
2010,05,04,16,06,24.20
2010,05,04,16,07,19.30
2010,05,04,16,08,22.50
2010,05,04,16,09,27.40
2010,05,04,16,10,22.50
2010,05,04,16,11,30.60
2010,05,04,16,12,22.50
2010,05,04,16,13,29.00
2010,05,04,16,14,24.20
2010,05,04,16,15,22.50
2010,05,04,16,16,24.20
2010,05,04,16,17,19.30
2010,05,04,16,18,24.20
2010,05,04,16,19,22.50
2010,05,04,16,20,27.40
2010,05,04,16,21,25.70
2010,05,04,16,22,24.20
2010,05,04,16,23,19.30
2010,05,04,16,24,16.10
2010,05,04,16,25,14.50
2010,05,04,16,26,19.30
2010,05,04,16,27,17.70
2010,05,04,16,28,11.30
2010,05,04,16,29,14.50
2010,05,04,16,30,19.30
2010,05,04,16,31,16.10
2010,05,04,16,32,14.50
2010,05,04,16,33,19.30
2010,05,04,16,34,22.50
2010,05,04,16,35,20.90
2010,05,04,16,36,19.30
2010,05,04,16,37,19.30
2010,05,04,16,38,19.30
2010,05,04,16,39,14.50
2010,05,04,16,40,16.10
2010,05,04,16,41,20.90
2010,05,04,16,42,14.50
2010,05,04,16,43,19.30
2010,05,04,16,44,17.70
2010,05,04,16,45,17.70
2010,05,04,16,46,20.90
2010,05,04,16,47,22.50
2010,05,04,16,48,22.50
2010,05,04,16,49,19.30
2010,05,04,16,50,25.70
2010,05,04,16,51,20.90
2010,05,04,16,52,29.00
2010,05,04,16,53,32.20
2010,05,04,16,54,29.00
2010,05,04,16,55,25.70
2010,05,04,16,56,32.20
2010,05,04,16,57,22.50
2010,05,04,16,58,30.60
2010,05,04,16,59,20.90
2010,05,04,17,00,20.90
2010,05,04,17,01,19.30
2010,05,04,17,02,24.20
2010,05,04,17,03,25.70
2010,05,04,17,04,30.60
2010,05,04,17,05,30.60
2010,05,04,17,06,27.40
2010,05,04,17,07,19.30
2010,05,04,17,08,19.30
2010,05,04,17,09,30.60
2010,05,04,17,10,29.00
2010,05,04,17,11,30.60
2010,05,04,17,12,20.90
2010,05,04,17,13,22.50
2010,05,04,17,14,16.10
2010,05,04,17,15,20.90
2010,05,04,17,16,17.70
2010,05,04,17,17,25.70
2010,05,04,17,18,25.70
2010,05,04,17,19,22.50
2010,05,04,17,20,24.20
2010,05,04,17,21,27.40
2010,05,04,17,22,20.90
2010,05,04,17,23,32.20
2010,05,04,17,24,25.70
2010,05,04,17,25,30.60
2010,05,04,17,26,22.50
2010,05,04,17,27,14.50
2010,05,04,17,28,19.30
2010,05,04,17,29,19.30
2010,05,04,17,30,19.30
2010,05,04,17,31,17.70
2010,05,04,17,32,19.30
2010,05,04,17,33,19.30
2010,05,04,17,34,14.50
2010,05,04,17,35,24.20
2010,05,04,17,36,20.90
2010,05,04,17,37,19.30
2010,05,04,17,38,24.20
2010,05,04,17,39,32.20
2010,05,04,17,40,22.50
2010,05,04,17,41,19.30